Voltar ao catálogo

COSMOS 2061

AtivoMilitarPO
NORAD 20527·PAYLOAD·🇷🇺 Russia

Lançado Mar 20, 1990 de Plesetsk Cosmodrome

Loading…

Próximas Passagens (próximas 24 horas)

TLE

AtualizadoSource: Space-Track

Época: Sep 14, 2026, 12:45 UTC

1 20527U 90023A   26257.53180429  .00000033  00000-0  19369-4 0  9992
2 20527  82.9332 103.4500 0031509  19.3087   7.9049 13.72390355827064

Acompanhe COSMOS 2061 em tempo real com AllMySat

Download on the App Store